This is the latest recevied weather packets stored in our database for station/object W0WC. If no packets are shown the sender has not sent any weather packets the latest 10 day(s).
| Time | Temp. | Humidity | Pressure | Rain* | Wind** | Luminosity | Snow |
|---|---|---|---|---|---|---|---|
| 1787965257 | 30° C | 36% | 1018.1 hPa | 0 mm | - | 1 W/m² | - |
| 1787964951 | 30.56° C | 35% | 1018.2 hPa | 0 mm | - | 3 W/m² | - |
| 1787964646 | 30.56° C | 35% | 1018.1 hPa | 0 mm | - | 4 W/m² | - |
| 1787964345 | 31.11° C | 34% | 1018.1 hPa | 0 mm | - | 7 W/m² | - |
| 1787964045 | 31.11° C | 34% | 1018.1 hPa | 0 mm | - | 10 W/m² | - |
| 1787963745 | 31.67° C | 33% | 1018.1 hPa | 0 mm | - | 14 W/m² | - |
| 1787963440 | 31.67° C | 33% | 1018 hPa | 0 mm | - | 18 W/m² | - |
| 1787963135 | 32.22° C | 32% | 1018.1 hPa | 0 mm | - | 22 W/m² | - |
| 1787962834 | 32.22° C | 32% | 1018.1 hPa | 0 mm | - | 26 W/m² | - |
| 1787962533 | 32.22° C | 32% | 1018.1 hPa | 0 mm | - | 30 W/m² | - |
| 1787962232 | 32.78° C | 32% | 1018.2 hPa | 0 mm | - | 36 W/m² | - |
| 1787961932 | 32.78° C | 32% | 1018.1 hPa | 0 mm | - | 38 W/m² | - |
| 1787961627 | 33.33° C | 31% | 1018.2 hPa | 0 mm | - | 44 W/m² | - |
| 1787961320 | 33.33° C | 31% | 1018.1 hPa | 0 mm | - | 62 W/m² | - |
| 1787961015 | 33.33° C | 31% | 1018.1 hPa | 0 mm | - | 71 W/m² | - |
| 1787960710 | 33.33° C | 31% | 1018.1 hPa | 0 mm | - | 80 W/m² | - |
| 1787960409 | 33.89° C | 30% | 1018.2 hPa | 0 mm | - | 90 W/m² | - |
| 1787960103 | 33.89° C | 29% | 1018 hPa | 0 mm | - | 100 W/m² | - |
| 1787959798 | 33.89° C | 29% | 1018.2 hPa | 0 mm | - | 111 W/m² | - |
| 1787959493 | 33.89° C | 29% | 1018.1 hPa | 0 mm | - | 121 W/m² | - |
| 1787959188 | 34.44° C | 28% | 1018.2 hPa | 0 mm | - | 133 W/m² | - |
| 1787958883 | 33.89° C | 28% | 1018.3 hPa | 0 mm | - | 146 W/m² | - |
| 1787958577 | 33.89° C | 28% | 1018.3 hPa | 0 mm | - | 157 W/m² | - |
| 1787958273 | 33.89° C | 28% | 1018.3 hPa | 0 mm | - | 170 W/m² | - |
| 1787957972 | 33.89° C | 29% | 1018.3 hPa | 0 mm | - | 184 W/m² | - |
* Rain latest hour (hover to see other rain measurements)
** Current wind speed in m/s (hover to see current wind gust speed)